{"data":{"norad_id":58822,"epoch":"2026-09-22T23:18:16.083072Z","epoch_age_seconds":36447,"freshness":"FRESH","line1":"1 58822U 24016C   26265.97101948  .00005821  00000+0  22578-3 0  9990","line2":"2 58822  97.4313 346.0085 0009299 205.2519 154.8267 15.26471889148044","mean_motion":15.26471889,"eccentricity":0.0009299,"inclination_deg":97.4313,"raan_deg":346.0085,"arg_perigee_deg":205.2519,"mean_anomaly_deg":154.8267,"bstar":0.00022578,"rev_number":14804,"period_min":94.335179728947,"perigee_km":479.98588179549,"apogee_km":492.75249040039,"semimajor_km":6864.5061860979,"source":"CELESTRAK","updated_at":"2026-09-23T09:00:19.005919Z"}}